DELTA 1 DEB, 10748

Orbit data source: Space-Track

DELTA 1 DEB, 10748 is space debris in SSO originally from a launch on Thu, 29 Jul 1976 UTC launched from the Air Force Western Test Range (AFWTR). Debris objects in space refer to the collection of defunct objects orbiting the Earth. Examples of debris include non-operational satellites, rocket bodies, and fragments generated from explosions, collisions, or faulty payload assembly.

Loading next visibility...
Identifier
10748, 1976-077AV
Orbit
SSO
Country
Flag of USUS
Related business
Manufacturer
Unknown
Mission
Spacecraft
Bus & Motor
Unknown
Mass
Unknown
Launch date (UTC)
1976-07-29 (49 years ago)
Launch vehicle
Unknown
Launch site
Air Force Western Test Range (AFWTR)
Object type
Payload
Rocket body
Debris
Shape & HBR
Unknown shape, 0.2 m
Radar Cross Section
Small (<0.1 m²)

Expand to show TLE details & history
Last TLE update: 10 hours ago

TLE from 10 hours ago
0 DELTA 1 DEB
1 10748U 76077AV  25352.89920583 -.00000007  00000-0  33047-3 0  9996
2 10748 102.4670 332.1752 0073749  50.3413 338.7929 12.29744084216552
Epoch: 2025-12-18T21:34Z
TLE epoch observation values (Epoch: 2025-12-18T21:34:51.383Z)
Latitude
28.12726°
Longitude
-86.04104°
Altitude
1,499.038 km
Speed
7.142 km/s
True Right ascension
21h 41m 41s
True Declination
27° 59' 53"
Sunlit
Object was in daylight at epoch
Visualization orbit readout
Latitude
Unknown
Longitude
Unknown
Altitude
Unknown
Speed
Unknown
Apparent Right ascension
Unknown
Apparent Declination
Unknown
Sunlit
N/A
Visualization observer readout
Local Sidereal Time
06:09:30
Azimuth
Unknown
Elevation
Unknown
Doppler factor
Unknown
Orbital elements
Apogee altitude
1,606.451 km
Perigee altitude
1,489.543 km
Semi-major axis
7,926.134 km
Eccentricity
0.00737
Inclination
102.467°
RAAN
332.1752°
Arg. of periapsis
50.3413°
True anomaly
338.48455°
Mean anomaly
338.7929°
Eccentric anomaly
338.63899°
Mean motion
3.07575 °/min
Orbital period
117.04 mins
BSTAR
0.00033047
Loading maneuver chart data...
Computing Atmospheric mass density...
Loading historical data...
Loading historical data...
Loading historical data...
Loading historical data...
Loading historical data...
Loading historical data...
Loading historical data...

Documentation

Showing up to 5 results
|